Location: Partizánske
(48.6285°N, 18.3769°E)
Time: 18:13:27
(UTC+02:00)

Transit 2A Rocket - Visible Passes

Search period start: 07 July 2022 00:00
Search period end: 17 July 2022 00:00
Orbit: 594 x 907 km, 66.7° (Epoch: 06 July)

Date Brightness Start Highest point End Pass type
(mag) Time Alt. Az. Time Alt. Az. Time Alt. Az.
07 Jul 7.1 02:42:11 10° SE 02:44:53 15° ESE 02:47:29 10° ENE visible
08 Jul 5.2 03:39:17 10° SSW 03:44:04 57° ESE 03:48:35 10° NE visible
09 Jul 5.9 02:57:43 14° S 03:01:20 34° ESE 03:05:31 10° NE visible
10 Jul 6.6 02:16:08 14° SSE 02:18:42 20° ESE 02:22:07 10° ENE visible
10 Jul 4.9 03:56:01 10° SW 04:00:52 64° NW 04:05:23 10° NNE visible
11 Jul 7.1 01:34:33 10° SE 01:36:10 12° ESE 01:37:44 10° E visible
11 Jul 4.7 03:14:22 18° SSW 03:18:01 79° ESE 03:22:35 10° NE visible
12 Jul 5.3 02:32:41 24° S 02:35:15 46° ESE 02:39:38 10° NE visible
12 Jul 6.0 04:13:40 10° WSW 04:17:55 31° NW 04:21:55 10° NNE visible
13 Jul 6.1 01:50:58 23° SE 01:52:33 27° ESE 01:56:27 10° NE visible
13 Jul 5.3 03:30:50 13° WSW 03:34:54 47° NW 03:39:16 10° NNE visible
14 Jul 6.6 01:09:12 16° ESE 01:09:57 16° ESE 01:12:50 10° ENE visible
14 Jul 4.7 02:49:04 24° SW 02:52:00 77° NW 02:56:32 10° NNE visible
15 Jul 4.8 02:07:16 35° S 02:09:11 64° ESE 02:13:40 10° NE visible
15 Jul 6.4 03:48:11 10° W 03:52:02 24° NW 03:55:42 10° NNE visible
16 Jul 5.5 01:25:26 33° SE 01:26:25 37° ESE 01:30:38 10° NE visible
16 Jul 5.8 03:05:18 14° WSW 03:08:58 36° NW 03:13:07 10° NNE visible
